EC1ABR Weather Reports


time (UTC)temp
C
wind
direction
speed
KPH
gust
KPH
rain 1hr
cm
rain 24hr
cm
rain mn
cm
humidity
%
barometer
mb
20260504201803 11 0 0.0 0.0 0.00 0.00 0.00 87 1015.6
20260504200903 11 0 0.0 0.0 0.00 0.00 0.00 87 1015.7
20260504200004 11 0 0.0 0.0 0.00 0.00 0.00 86 1015.5
20260504195617 11 0 0.0 0.0 0.00 0.00 0.00 85 1015.5
20260504194503 12 0 0.0 0.0 0.00 0.00 0.00 84 1015.6
20260504193817 12 0 0.0 0.0 0.00 0.00 0.00 81 1015.5
20260504192703 13 0 0.0 0.0 0.00 0.00 0.00 80 1015.3
20260504191803 13 0 0.0 0.0 0.00 0.00 0.00 79 1015.1
20260504190904 13 0 0.0 0.0 0.00 0.00 0.00 80 1014.7
20260504190004 13 0 0.0 0.0 0.00 0.00 0.00 80 1014.7
20260504185403 13 0 0.0 0.0 0.00 0.00 0.00 81 1014.8
20260504184503 13 0 0.0 0.0 0.00 0.00 0.00 82 1014.5
20260504183603 13 0 0.0 0.0 0.00 0.00 0.00 82 1014.3
20260504182703 13 0 0.0 0.0 0.00 0.00 0.00 82 1014.4
20260504181804 13 0 0.0 0.0 0.00 0.00 0.00 82 1014.3
20260504180904 13 0 0.0 0.0 0.00 0.00 0.00 82 1014.4
20260504180004 13 0 0.0 0.0 0.00 0.00 0.00 82 1014.4
20260504175403 12 0 0.0 0.0 0.00 0.00 0.00 82 1014.3
20260504174503 12 0 0.0 0.0 0.00 0.00 0.00 83 1014.2
20260504173603 12 0 0.0 0.0 0.00 0.00 0.00 84 1014.3
20260504172704 12 0 0.0 0.0 0.00 0.00 0.00 84 1014.2
20260504172013 13 0 0.0 0.0 0.00 0.00 0.00 83 1014.2
20260504170903 13 0 0.0 0.0 0.00 0.00 0.00 81 1014.1
20260504160213 12 0 0.0 0.0 0.00 0.00 0.00 78 1014.1
20260504150903 13 0 0.0 0.0 0.00 0.00 0.00 83 1013.8
20260504140903 12 0 0.0 0.0 0.00 0.00 0.00 82 1013.5
20260504140214 12 0 0.0 0.0 0.00 0.00 0.00 82 1013.5
20260504110216 12 0 0.0 0.0 0.00 0.00 0.00 81 1014.2
20260504081803 12 0 0.0 0.0 0.00 0.00 0.00 98 1014.0
20260504081116 12 0 0.0 0.0 0.00 0.00 0.00 99 1014.0
20260504080213 11 0 0.0 0.0 0.00 0.00 0.00 99 1014.0
20260504050004 8 0 0.0 0.0 0.00 0.00 0.00 98 1013.3
20260504045404 8 0 0.0 0.0 0.00 0.00 0.00 98 1013.1
20260504044504 8 0 0.0 0.0 0.00 0.00 0.00 98 1013.4
20260504043603 8 0 0.0 0.0 0.00 0.00 0.00 98 1013.5
20260504042703 8 0 0.0 0.0 0.00 0.00 0.00 98 1013.4
20260504041804 8 0 0.0 0.0 0.00 0.00 0.00 98 1013.5
20260504040903 8 0 0.0 0.0 0.00 0.00 0.00 97 1013.4
20260504040004 8 0 0.0 0.0 0.00 0.00 0.00 97 1013.6
20260504035403 8 0 0.0 0.0 0.00 0.00 0.00 97 1013.5
20260504034503 8 0 0.0 0.0 0.00 0.00 0.00 97 1013.5
20260504033603 8 0 0.0 0.0 0.00 0.00 0.00 97 1013.6
20260504032703 8 0 0.0 0.0 0.00 0.00 0.00 97 1013.5
20260504031804 8 0 0.0 0.0 0.00 0.00 0.00 97 1013.4
20260504031114 8 0 0.0 0.0 0.00 0.00 0.00 97 1013.6
20260504030004 8 0 0.0 0.0 0.00 0.00 0.00 97 1013.7
20260504025403 8 0 0.0 0.0 0.00 0.00 0.00 97 1013.8
20260504024503 8 0 0.0 0.0 0.00 0.00 0.00 97 1013.7
20260504023813 8 0 0.0 0.0 0.00 0.00 0.00 96 1013.8
20260504022704 8 0 0.0 0.0 0.00 0.00 0.00 96 1013.7
20260504022018 8 0 0.0 0.0 0.00 0.00 0.00 96 1013.8
20260504021115 8 0 0.0 0.0 0.00 0.00 0.00 96 1014.0
20260504020004 8 0 0.0 0.0 0.00 0.00 0.00 96 1014.0
20260504015403 8 0 0.0 0.0 0.00 0.00 0.00 96 1013.9
20260504014503 8 0 0.0 0.0 0.00 0.00 0.00 96 1014.0
20260504013604 8 0 0.0 0.0 0.00 0.00 0.00 95 1014.2
20260504012916 8 0 0.0 0.0 0.00 0.00 0.00 95 1014.2
20260504011803 8 0 0.0 0.0 0.00 0.00 0.00 95 1014.1
20260504010903 8 0 0.0 0.0 0.00 0.00 0.00 95 1014.2
20260504010213 8 0 0.0 0.0 0.00 0.00 0.00 95 1014.3
20260504005403 9 0 0.0 0.0 0.00 0.00 0.00 95 1014.3
20260504004503 9 0 0.0 0.0 0.00 0.00 0.00 95 1014.3
20260504003604 9 0 0.0 0.0 0.00 0.00 0.00 95 1014.5
20260504002703 10 0 0.0 0.0 0.00 0.00 0.00 95 1014.4
20260504002014 10 0 0.0 0.0 0.00 0.00 0.00 95 1014.4
20260504001116 10 0 0.0 0.0 0.00 0.00 0.00 95 1014.7
20260504000003 10 0 0.0 0.0 0.00 0.00 0.00 95 1014.7
20260503235403 10 0 0.0 0.0 0.00 0.00 0.00 95 1015.0
20260503234504 10 0 0.0 0.0 0.00 0.00 0.00 95 1014.9
20260503233814 10 0 0.0 0.0 0.00 0.00 0.00 95 1014.8
20260503232703 11 0 0.0 0.0 0.00 0.00 0.00 95 1014.9
20260503231803 11 0 0.0 0.0 0.00 0.00 0.00 95 1015.0
20260503230903 11 0 0.0 0.0 0.00 0.00 0.00 95 1015.0
20260503230008 11 0 0.0 0.0 0.00 0.00 0.00 95 1015.4
20260503225404 11 0 0.0 0.0 0.00 0.00 0.00 94 1015.4
20260503224503 11 0 0.0 0.0 0.00 0.00 0.00 94 1015.6
20260503223603 11 0 0.0 0.0 0.00 0.00 0.00 94 1015.8
20260503222703 11 0 0.0 0.0 0.00 0.00 0.00 94 1015.8
20260503221803 11 0 0.0 0.0 0.00 0.00 0.00 94 1015.8
20260503220903 11 0 0.0 0.0 0.00 0.00 0.00 94 1015.4
20260503220004 11 0 0.0 0.0 0.00 0.00 0.00 94 1015.6
20260503215403 11 0 0.0 0.0 0.00 0.00 0.00 94 1015.3
20260503214503 12 0 0.0 0.0 0.00 0.00 0.00 94 1015.0
20260503213603 12 0 0.0 0.0 0.00 0.00 0.00 95 1014.7
20260503212703 12 0 0.0 0.0 0.00 0.00 0.00 95 1014.6
20260503211803 12 0 0.0 0.0 0.00 0.00 0.00 95 1014.7
20260503210903 12 0 0.0 0.0 0.00 0.00 0.00 95 1014.5
20260503210004 12 0 0.0 0.0 0.00 0.00 0.00 95 1014.6
20260503205403 12 0 0.0 0.0 0.00 0.00 0.00 95 1014.6
20260503204503 12 0 0.0 0.0 0.00 0.00 0.00 92 1014.4
20260503203603 12 0 0.0 0.0 0.00 0.00 0.00 92 1014.3
20260503202703 12 0 0.0 0.0 0.00 0.00 0.00 92 1014.3